Chippewa, MI

4:21 AM EST on December 09, 2019 (GMT -0500)
Chippewa County International

Weather History for KCIU - October, 2019

Change the Weather History Date:

Sunday, October 27, 2019

  Actual Average Record
Temperature  
Mean Temperature 45 °F -  
Max Temperature 52 °F 50 °F 66 °F (1989)
Min Temperature 39 °F 30 °F 21 °F (1990)
Degree Days  
Heating Degree Days 20    
Moisture  
Dew Point 42 °F    
Average Humidity 89    
Maximum Humidity 100    
Minimum Humidity 58    
Precipitation  
Precipitation 0.48 in - - ()
Sea Level Pressure  
Sea Level Pressure 29.71 in    
Wind  
Wind Speed 10 mph ()    
Max Wind Speed 17 mph    
Max Gust Speed 24 mph    
Visibility 8.2 miles    
Events Rain    
Averages and records for this station are not official NWS values.
T = Trace of Precipitation, MM = Missing Value Source: Averaged Metar Reports

Daily Weather History Graph

Daily Weather History Graph

Search for Another Location

Airport or City:

Astronomy

Oct. 27, 2019 Rise Set
Actual Time 8:11 AM EDT 6:31 PM EDT
Civil Twilight 7:40 AM EDT 7:02 PM EDT
Nautical Twilight 7:05 AM EDT 7:37 PM EDT
Astronomical Twilight 6:30 AM EDT 8:12 PM EDT
Moon 7:12 AM EDT (10/27) 6:44 PM EDT (10/27)
Length of Visible Light 11h 21m
Length of Day
10h 19m
Waning Crescent, 0% of the Moon is Illuminated
Oct 27
Waning Crescent
Oct 27
New
Nov 4
First Quarter
Nov 12
Full
Nov 19
Last Quarter

Hourly Weather History & Observations

Time (EDT) Temp. Windchill Dew Point Humidity Pressure Visibility Wind Dir Wind Speed Gust Speed Precip Events Conditions
12:56 AM 46.0 °F 39.0 °F 41.0 °F 83% 29.77 in 10.0 mi ESE 17.3 mph - N/A   Mostly Cloudy
1:56 AM 44.1 °F 37.7 °F 42.1 °F 93% 29.73 in 10.0 mi East 12.7 mph - 0.01 in Rain Rain
2:56 AM 43.0 °F 36.8 °F 42.1 °F 97% 29.70 in 9.0 mi East 11.5 mph - 0.10 in Rain Rain
3:15 AM 42.8 °F 36.2 °F 42.8 °F 100% 29.66 in 10.0 mi East 12.7 mph - 0.01 in Rain Light Rain
3:56 AM 43.0 °F 35.4 °F 42.1 °F 97% 29.64 in 6.0 mi ENE 16.1 mph - 0.03 in Rain Light Rain
4:10 AM 42.8 °F 35.8 °F 42.8 °F 100% 29.61 in 4.0 mi ENE 13.8 mph - 0.01 in Rain Light Rain
4:56 AM 43.0 °F 36.4 °F 42.1 °F 97% 29.59 in 5.0 mi NE 12.7 mph - 0.05 in Rain Light Rain
5:56 AM 43.0 °F 37.7 °F 43.0 °F 100% 29.58 in 6.0 mi NNE 9.2 mph - 0.10 in Rain Light Rain
6:03 AM 42.8 °F 37.0 °F 42.8 °F 100% 29.57 in 5.0 mi NNE 10.4 mph - 0.01 in Rain Light Rain
6:43 AM 42.8 °F 37.0 °F 42.8 °F 100% 29.56 in 9.0 mi NE 10.4 mph - 0.08 in Rain Rain
6:56 AM 43.0 °F 38.2 °F 43.0 °F 100% 29.56 in 10.0 mi NE 8.1 mph - 0.11 in Rain Rain
7:56 AM 44.1 °F 38.6 °F 43.0 °F 96% 29.57 in 10.0 mi North 10.4 mph - 0.04 in Rain Light Rain
8:44 AM 44.6 °F 38.4 °F 42.8 °F 93% 29.57 in 1.8 mi North 12.7 mph - 0.02 in Rain Light Rain
8:56 AM 44.1 °F 38.6 °F 43.0 °F 96% 29.59 in 2.0 mi North 10.4 mph - 0.02 in Rain Light Rain
9:27 AM 44.6 °F 38.8 °F 42.8 °F 93% 29.59 in 2.0 mi NNW 11.5 mph - 0.00 in Rain Light Rain
9:45 AM 44.6 °F 39.2 °F 44.6 °F 100% 29.59 in 4.0 mi North 10.4 mph - 0.00 in Rain Light Rain
9:56 AM 44.1 °F 38.6 °F 44.1 °F 100% 29.61 in 5.0 mi North 10.4 mph - 0.00 in Rain Light Rain
10:56 AM 45.0 °F 39.3 °F 44.1 °F 97% 29.63 in 10.0 mi NNW 11.5 mph - 0.02 in Rain Light Rain
11:56 AM 46.0 °F 40.2 °F 45.0 °F 96% 29.65 in 4.0 mi NW 12.7 mph - 0.00 in   Overcast
12:24 PM 46.4 °F 40.7 °F 44.6 °F 93% 29.65 in 9.0 mi NW 12.7 mph 20.7 mph N/A   Overcast
12:56 PM 46.9 °F - 44.1 °F 90% 29.65 in 10.0 mi NNW 16.1 mph 19.6 mph N/A   Overcast
1:20 PM 48.2 °F - 44.6 °F 87% 29.66 in 10.0 mi NNW 17.3 mph - N/A   Overcast
1:56 PM 48.9 °F - 42.1 °F 77% 29.69 in 10.0 mi NW 15.0 mph 20.7 mph N/A   Overcast
2:27 PM 51.8 °F - 37.4 °F 58% 29.70 in 10.0 mi NW 17.3 mph - N/A   Scattered Clouds
2:56 PM 51.1 °F - 39.9 °F 66% 29.73 in 10.0 mi NW 12.7 mph 24.2 mph N/A   Clear
3:56 PM 51.1 °F - 42.1 °F 71% 29.75 in 10.0 mi NNW 11.5 mph - N/A   Partly Cloudy
4:13 PM 51.8 °F - 42.8 °F 71% 29.76 in 10.0 mi NW 11.5 mph - N/A   Mostly Cloudy
4:36 PM 51.8 °F - 41.0 °F 67% 29.76 in 10.0 mi NNW 6.9 mph - N/A   Partly Cloudy
4:56 PM 50.0 °F - 41.0 °F 71% 29.77 in 10.0 mi North 8.1 mph - N/A   Clear
5:56 PM 48.9 °F - 41.0 °F 74% 29.82 in 10.0 mi NNW 8.1 mph - N/A   Clear
6:56 PM 46.0 °F 43.9 °F 41.0 °F 83% 29.85 in 10.0 mi North 4.6 mph - N/A   Clear
7:56 PM 43.0 °F 40.3 °F 39.0 °F 86% 29.87 in 10.0 mi SSW 4.6 mph - N/A   Clear
8:35 PM 42.8 °F - 39.2 °F 87% 29.88 in 10.0 mi Calm Calm - N/A   Mostly Cloudy
8:56 PM 42.1 °F - 39.0 °F 89% 29.90 in 10.0 mi Calm Calm - N/A   Overcast
9:46 PM 39.2 °F - 37.4 °F 93% 29.89 in 10.0 mi Calm Calm - N/A   Scattered Clouds
9:56 PM 39.9 °F - 37.9 °F 93% 29.91 in 10.0 mi Calm Calm - N/A   Clear
10:56 PM 39.9 °F - 37.0 °F 89% 29.93 in 10.0 mi Calm Calm - N/A   Clear
11:56 PM 39.0 °F 35.7 °F 35.1 °F 86% 29.93 in 10.0 mi WNW 4.6 mph - N/A   Clear